Location: Unspecified
(0.0000°N, 0.0000°E)
Time: 22:16:56
(UTC+00:00)

Transit 2A Rocket - All Passes

Search period start: 28 August 2015 00:00
Search period end: 07 September 2015 00:00
Orbit: 592 x 913 km, 66.7° (Epoch: 27 August)

Date Brightness Start Highest point End Pass type
(mag) Time Alt. Az. Time Alt. Az. Time Alt. Az.
28 Aug - 00:06:45 10° NNE 00:10:23 27° ENE 00:14:16 10° SE night (unlit)
28 Aug - 01:51:13 10° W 01:52:57 12° WSW 01:54:23 10° SW night (unlit)
28 Aug - 12:35:12 10° SSW 12:41:18 87° WNW 12:47:06 10° NNE daylight
28 Aug - 23:26:45 10° NE 23:28:14 12° ENE 23:30:02 10° E night (unlit)
29 Aug - 01:06:56 10° NW 01:10:39 27° WSW 01:14:28 10° SSW night (unlit)
29 Aug - 11:53:21 10° S 11:59:10 48° ESE 12:04:45 10° NE daylight
29 Aug - 13:38:41 10° W 13:41:44 14° WNW 13:44:17 10° NW daylight
30 Aug - 00:24:13 10° NNW 00:28:30 64° WSW 00:33:01 10° SSE night (unlit)
30 Aug - 11:12:11 10° SSE 11:16:55 25° ESE 11:21:42 10° ENE daylight
30 Aug - 12:54:26 10° SW 12:59:31 27° WNW 13:04:14 10° NNW daylight
30 Aug - 23:42:14 10° N 23:46:25 51° ENE 23:50:51 10° SSE night (unlit)
31 Aug - 10:32:30 10° SE 10:34:34 12° ESE 10:37:07 10° E daylight
31 Aug - 12:11:29 10° SSW 12:17:24 54° WNW 12:22:58 10° N daylight
31 Aug - 23:01:03 10° NNE 23:04:19 22° ENE 23:07:51 10° ESE night (unlit)
01 Sep - 00:44:08 10° WNW 00:46:49 15° WSW 00:49:22 10° SSW night (unlit)
01 Sep - 11:29:13 10° SSW 11:35:17 78° ESE 11:41:03 10° NNE daylight
02 Sep - 00:00:35 10° NW 00:04:34 34° WSW 00:08:43 10° S night (unlit)
02 Sep - 10:47:32 10° S 10:53:07 39° ESE 10:58:31 10° NE daylight
02 Sep - 12:31:49 10° WSW 12:35:40 17° WNW 12:39:05 10° NNW daylight
02 Sep - 23:18:06 10° NNW 23:22:25 84° WSW 23:27:03 10° SSE night (unlit)
03 Sep - 10:06:39 10° SSE 10:10:51 20° ESE 10:15:11 10° ENE daylight
03 Sep - 11:48:06 10° SW 11:53:30 33° WNW 11:58:31 10° N daylight
03 Sep - 22:36:19 10° N 22:40:21 39° ENE 22:44:39 10° SE night (unlit)
04 Sep - 11:05:22 10° SSW 11:11:23 66° WNW 11:17:02 10° N daylight
04 Sep - 21:55:28 10° NNE 21:58:14 17° ENE 22:01:18 10° ESE night (unlit)
04 Sep - 23:37:26 10° WNW 23:40:42 19° WSW 23:43:57 10° SSW night (unlit)
05 Sep - 10:23:16 10° S 10:29:16 64° ESE 10:34:56 10° NNE daylight
05 Sep - 22:54:18 10° NW 22:58:28 44° WSW 23:02:54 10° S night (unlit)
06 Sep - 09:41:48 10° S 09:47:04 32° ESE 09:52:13 10° NE daylight
06 Sep - 11:25:12 10° WSW 11:29:37 21° WNW 11:33:37 10° NNW daylight
06 Sep - 22:12:02 10° NNW 22:16:22 75° ENE 22:20:59 10° SSE night (unlit)
